This demonstration page uses our WeatherBlox Daily Observations layout. Learn more.

41.55636, -103.73856

Hourly Observations for January 29, 2019

Temp ( °F °C ) Dew Point ( °F °C ) Humidity (%) Winds ( mph kmh ) Pressure ( in mb ) Visibility ( mi km ) Precip ( " mm )
12:58 am 00:58 Clear 17 -8.5 7 -14 65 65 NW 18 30 30.35 1028 10 16.0934 N/A
1:58 am 01:58 Clear 15 -9.3 7 -13.7 71 71 NW 16 26 30.37 1028 10 16.0934 N/A
2:58 am 02:58 Clear 14 -10 7 -14 73 73 NW 14 22 30.36 1028 10 16.0934 N/A
3:58 am 03:58 Clear 12 -11.1 7 -13.7 81 81 WNW 10 17 30.36 1028 10 16.0934 N/A
4:58 am 04:58 Clear 14 -10 9 -13 79 79 NNW 13 20 30.34 1027 10 16.0934 N/A
5:58 am 05:58 Clear 14 -10.1 8 -13.2 78 78 NNW 14 22 30.33 1027 10 16.0934 N/A
6:58 am 06:58 Clear 13 -10.6 8 -13.6 79 79 NW 8 13 30.33 1027 10 16.0934 N/A
7:58 am 07:58 Clear 9 -12.6 5 -14.8 84 84 W 6 9 30.33 1027 10 16.0934 N/A
8:58 am 08:58 Clear 9 -12.9 5 -15.2 83 83 W 6 9 30.32 1027 10 16.0934 N/A
9:58 am 09:58 Clear 7 -14 3 -16 85 85 NNW 3 6 30.32 1027 10 16.0934 N/A
10:58 am 10:58 Clear 12 -11.1 7 -14.1 79 79 NNW 10 17 30.28 1025 10 16.0934 N/A
11:58 am 11:58 Clear 13 -10.6 6 -14.7 72 72 NNW 12 19 30.28 1025 10 16.0934 N/A
12:58 pm 12:58 Clear 11 -11.4 5 -15.1 74 74 NNW 9 15 30.28 1026 10 16.0934 N/A
1:58 pm 13:58 Clear 10 -12.2 4 -15.3 78 78 NW 8 13 30.3 1026 10 16.0934 N/A
2:58 pm 14:58 Sunny 11 -11.7 6 -14.7 79 79 WNW 9 15 30.3 1026 10 16.0934 N/A
3:58 pm 15:58 Sunny 18 -8 9 -13 68 68 NW 18 30 30.29 1026 10 16.0934 N/A
4:57 pm 16:57 Sunny 19 -7.4 8 -13.4 63 63 NNW 16 26 30.26 1025 10 16.0934 N/A
5:56 pm 17:56 Sunny 21 -6 8 -13.5 56 56 NNW 21 33 30.26 1025 10 16.0934 N/A
6:56 pm 18:56 Sunny 23 -5 8 -13.3 53 53 NW 18 30 30.25 1025 10 16.0934 N/A
7:56 pm 19:56 Sunny 24 -4.3 10 -12.4 54 54 NW 17 28 30.21 1023 10 16.0934 N/A
8:58 pm 20:58 Sunny 26 -3.4 9 -12.8 49 49 NW 17 28 30.18 1022 10 16.0934 N/A
9:58 pm 21:58 Sunny 26 -3.2 10 -12.2 50 50 NNW 16 26 30.16 1021 10 16.0934 N/A
10:58 pm 22:58 Sunny 25 -3.8 9 -12.9 50 50 N 15 24 30.16 1022 10 16.0934 N/A

Powered by AerisWeather